Time,TemperatureF,DewpointF,PressureIn,WindDirection,WindDirectionDegrees,WindSpeedMPH,WindSpeedGustMPH,Humidity,HourlyPrecipIn,Conditions,Clouds,dailyrainin,SoftwareType,DateUTC
2013-06-27 00:02:00,84.0,76.0,29.82,WSW,253,1.0,3.0,77,0.00,,,0.00,,2013-06-27 05:02:00,
2013-06-27 00:12:00,83.0,75.0,29.83,West,264,3.0,6.0,77,0.00,,,0.00,,2013-06-27 05:12:00,
2013-06-27 00:22:00,83.0,75.0,29.83,West,264,3.0,6.0,77,0.00,,,0.00,,2013-06-27 05:22:00,
2013-06-27 00:32:00,83.0,76.0,29.83,West,277,1.0,6.0,79,0.00,,,0.00,,2013-06-27 05:32:00,
2013-06-27 00:42:00,83.0,76.0,29.83,West,277,1.0,6.0,79,0.00,,,0.00,,2013-06-27 05:42:00,
2013-06-27 00:53:00,83.0,76.0,29.83,West,277,1.0,6.0,79,0.00,,,0.00,,2013-06-27 05:53:00,
2013-06-27 01:01:00,82.0,75.0,29.83,SW,224,0.0,3.0,80,0.00,,,0.00,,2013-06-27 06:01:00,
2013-06-27 01:12:00,81.0,75.0,29.84,SSE,160,0.0,3.0,81,0.00,,,0.00,,2013-06-27 06:12:00,
2013-06-27 01:22:00,81.0,75.0,29.84,SSE,160,0.0,3.0,81,0.00,,,0.00,,2013-06-27 06:22:00,
2013-06-27 01:34:00,81.0,75.0,29.84,SSW,204,1.0,3.0,82,0.00,,,0.00,,2013-06-27 06:34:00,
2013-06-27 01:43:00,80.0,74.0,29.83,SW,218,0.0,3.0,83,0.00,,,0.00,,2013-06-27 06:43:00,
2013-06-27 01:53:00,80.0,74.0,29.83,SW,218,0.0,3.0,83,0.00,,,0.00,,2013-06-27 06:53:00,
2013-06-27 02:02:00,80.0,75.0,29.83,SW,219,0.0,2.0,84,0.00,,,0.00,,2013-06-27 07:02:00,
2013-06-27 02:12:00,79.0,74.0,29.84,SSE,165,0.0,0.0,84,0.00,,,0.00,,2013-06-27 07:12:00,
2013-06-27 02:22:00,79.0,74.0,29.84,SSE,165,0.0,0.0,84,0.00,,,0.00,,2013-06-27 07:22:00,
2013-06-27 02:33:00,79.0,74.0,29.85,SSW,204,0.0,0.0,85,0.00,,,0.00,,2013-06-27 07:33:00,
2013-06-27 02:42:00,79.0,74.0,29.85,SW,226,0.0,2.0,86,0.00,,,0.00,,2013-06-27 07:42:00,
2013-06-27 02:52:00,79.0,74.0,29.85,SW,226,0.0,2.0,86,0.00,,,0.00,,2013-06-27 07:52:00,
2013-06-27 03:01:00,79.0,74.0,29.85,SW,221,0.0,1.0,86,0.00,,,0.00,,2013-06-27 08:01:00,
2013-06-27 03:11:00,79.0,74.0,29.85,SW,219,0.0,2.0,86,0.00,,,0.00,,2013-06-27 08:11:00,
2013-06-27 03:22:00,79.0,74.0,29.85,SW,219,0.0,2.0,86,0.00,,,0.00,,2013-06-27 08:22:00,
2013-06-27 03:34:00,78.0,74.0,29.85,West,263,0.0,2.0,87,0.00,,,0.00,,2013-06-27 08:34:00,
2013-06-27 03:52:00,78.0,74.0,29.85,WSW,250,0.0,2.0,87,0.00,,,0.00,,2013-06-27 08:52:00,
2013-06-27 04:02:00,78.0,74.0,29.86,WSW,242,0.0,1.0,87,0.00,,,0.00,,2013-06-27 09:02:00,
2013-06-27 04:22:00,77.0,73.0,29.86,SSW,212,0.0,2.0,88,0.00,,,0.00,,2013-06-27 09:22:00,
2013-06-27 04:34:00,77.0,73.0,29.86,SSW,201,0.0,2.0,88,0.00,,,0.00,,2013-06-27 09:34:00,
2013-06-27 04:43:00,77.0,73.0,29.86,WSW,252,0.0,1.0,88,0.00,,,0.00,,2013-06-27 09:43:00,
2013-06-27 04:53:00,77.0,73.0,29.86,WSW,252,0.0,1.0,88,0.00,,,0.00,,2013-06-27 09:53:00,
2013-06-27 05:01:00,76.0,73.0,29.87,SW,214,0.0,0.0,90,0.00,,,0.00,,2013-06-27 10:01:00,
2013-06-27 05:11:00,76.0,73.0,29.87,SW,214,0.0,0.0,91,0.00,,,0.00,,2013-06-27 10:11:00,
2013-06-27 05:22:00,76.0,73.0,29.87,SW,214,0.0,0.0,91,0.00,,,0.00,,2013-06-27 10:22:00,
2013-06-27 05:32:00,75.0,73.0,29.88,SW,214,0.0,0.0,92,0.00,,,0.00,,2013-06-27 10:32:00,
2013-06-27 05:44:00,75.0,73.0,29.88,SW,214,0.0,0.0,93,0.00,,,0.00,,2013-06-27 10:44:00,
2013-06-27 05:54:00,75.0,73.0,29.88,SW,214,0.0,0.0,93,0.00,,,0.00,,2013-06-27 10:54:00,
2013-06-27 06:02:00,75.0,73.0,29.88,SW,214,0.0,0.0,93,0.00,,,0.00,,2013-06-27 11:02:00,
2013-06-27 06:11:00,74.0,72.0,29.88,SW,214,0.0,0.0,93,0.00,,,0.00,,2013-06-27 11:11:00,
2013-06-27 06:22:00,74.0,72.0,29.88,SW,214,0.0,0.0,93,0.00,,,0.00,,2013-06-27 11:22:00,
2013-06-27 06:33:00,74.0,72.0,29.88,SW,214,0.0,0.0,94,0.00,,,0.00,,2013-06-27 11:33:00,
2013-06-27 06:43:00,74.0,72.0,29.88,SW,214,0.0,0.0,94,0.00,,,0.00,,2013-06-27 11:43:00,
2013-06-27 06:52:00,74.0,72.0,29.88,SW,214,0.0,0.0,94,0.00,,,0.00,,2013-06-27 11:52:00,
2013-06-27 07:02:00,75.0,73.0,29.88,WSW,256,0.0,0.0,94,0.00,,,0.00,,2013-06-27 12:02:00,
2013-06-27 07:11:00,75.0,73.0,29.88,WSW,256,0.0,0.0,93,0.00,,,0.00,,2013-06-27 12:11:00,
2013-06-27 07:22:00,75.0,73.0,29.88,WSW,256,0.0,0.0,93,0.00,,,0.00,,2013-06-27 12:22:00,
2013-06-27 07:34:00,76.0,74.0,29.88,WSW,242,0.0,1.0,92,0.00,,,0.00,,2013-06-27 12:34:00,
2013-06-27 07:42:00,78.0,75.0,29.88,West,266,0.0,1.0,90,0.00,,,0.00,,2013-06-27 12:42:00,
2013-06-27 08:01:00,80.0,76.0,29.88,West,277,1.0,3.0,87,0.00,,,0.00,,2013-06-27 13:01:00,
2013-06-27 08:11:00,81.0,76.0,29.88,WSW,252,1.0,7.0,84,0.00,,,0.00,,2013-06-27 13:11:00,
2013-06-27 08:22:00,81.0,76.0,29.88,WSW,252,1.0,7.0,84,0.00,,,0.00,,2013-06-27 13:22:00,
2013-06-27 08:34:00,82.0,76.0,29.88,West,262,1.0,6.0,82,0.00,,,0.00,,2013-06-27 13:34:00,
2013-06-27 08:43:00,83.0,76.0,29.88,WNW,295,2.0,7.0,79,0.00,,,0.00,,2013-06-27 13:43:00,
2013-06-27 08:52:00,83.0,76.0,29.88,WNW,295,2.0,7.0,79,0.00,,,0.00,,2013-06-27 13:52:00,
2013-06-27 09:02:00,83.0,75.0,29.88,WSW,240,1.0,6.0,78,0.00,,,0.00,,2013-06-27 14:02:00,
2013-06-27 09:11:00,85.0,77.0,29.88,West,262,2.0,6.0,76,0.00,,,0.00,,2013-06-27 14:11:00,
2013-06-27 09:22:00,85.0,77.0,29.88,West,262,2.0,6.0,76,0.00,,,0.00,,2013-06-27 14:22:00,
2013-06-27 09:33:00,86.0,76.0,29.88,WSW,252,3.0,8.0,73,0.00,,,0.00,,2013-06-27 14:33:00,
2013-06-27 09:43:00,87.0,77.0,29.88,WNW,290,1.0,6.0,72,0.00,,,0.00,,2013-06-27 14:43:00,
2013-06-27 09:52:00,87.0,77.0,29.88,WNW,290,1.0,6.0,72,0.00,,,0.00,,2013-06-27 14:52:00,
2013-06-27 10:12:00,88.0,76.0,29.88,WNW,294,3.0,10.0,68,0.00,,,0.00,,2013-06-27 15:12:00,
2013-06-27 10:22:00,88.0,76.0,29.88,WNW,294,3.0,10.0,68,0.00,,,0.00,,2013-06-27 15:22:00,
2013-06-27 10:33:00,89.0,77.0,29.88,WSW,240,4.0,8.0,68,0.00,,,0.00,,2013-06-27 15:33:00,
2013-06-27 10:42:00,89.0,77.0,29.88,WNW,290,2.0,6.0,67,0.00,,,0.00,,2013-06-27 15:42:00,
2013-06-27 10:52:00,89.0,77.0,29.88,WNW,290,2.0,6.0,67,0.00,,,0.00,,2013-06-27 15:52:00,
2013-06-27 11:02:00,90.0,77.0,29.88,SW,214,2.0,9.0,66,0.00,,,0.00,,2013-06-27 16:02:00,
2013-06-27 11:11:00,90.0,77.0,29.88,SW,214,2.0,9.0,66,0.00,,,0.00,,2013-06-27 16:11:00,
2013-06-27 11:23:00,91.0,78.0,29.88,West,267,3.0,10.0,66,0.00,,,0.00,,2013-06-27 16:23:00,
2013-06-27 11:43:00,91.0,77.0,29.88,NNW,345,4.0,9.0,64,0.00,,,0.00,,2013-06-27 16:43:00,
2013-06-27 11:53:00,92.0,78.0,29.88,NW,325,4.0,7.0,64,0.00,,,0.00,,2013-06-27 16:53:00,
2013-06-27 12:01:00,92.0,77.0,29.88,West,276,5.0,9.0,62,0.00,,,0.00,,2013-06-27 17:01:00,
2013-06-27 12:11:00,92.0,77.0,29.88,West,276,5.0,9.0,62,0.00,,,0.00,,2013-06-27 17:11:00,
2013-06-27 12:22:00,93.0,78.0,29.88,WNW,285,4.0,9.0,62,0.00,,,0.00,,2013-06-27 17:22:00,
2013-06-27 12:33:00,93.0,77.0,29.88,West,280,5.0,10.0,60,0.00,,,0.00,,2013-06-27 17:33:00,
2013-06-27 12:43:00,93.0,77.0,29.88,West,280,5.0,10.0,60,0.00,,,0.00,,2013-06-27 17:43:00,
2013-06-27 12:53:00,95.0,77.0,29.87,WNW,288,3.0,10.0,57,0.00,,,0.00,,2013-06-27 17:53:00,
2013-06-27 13:01:00,96.0,77.0,29.86,WSW,257,3.0,8.0,55,0.00,,,0.00,,2013-06-27 18:01:00,
2013-06-27 13:11:00,96.0,77.0,29.86,WSW,257,3.0,8.0,55,0.00,,,0.00,,2013-06-27 18:11:00,
2013-06-27 13:22:00,96.0,77.0,29.86,WSW,257,3.0,8.0,55,0.00,,,0.00,,2013-06-27 18:22:00,
2013-06-27 13:32:00,96.0,75.0,29.85,WNW,295,2.0,7.0,51,0.00,,,0.00,,2013-06-27 18:32:00,
2013-06-27 13:44:00,96.0,75.0,29.85,WNW,295,2.0,7.0,51,0.00,,,0.00,,2013-06-27 18:44:00,
2013-06-27 13:52:00,99.0,78.0,29.85,WSW,243,2.0,8.0,51,0.00,,,0.00,,2013-06-27 18:52:00,
2013-06-27 14:01:00,98.0,74.0,29.85,WNW,290,1.0,12.0,47,0.00,,,0.00,,2013-06-27 19:01:00,
2013-06-27 14:11:00,98.0,74.0,29.85,WNW,290,1.0,12.0,47,0.00,,,0.00,,2013-06-27 19:11:00,
2013-06-27 14:23:00,97.0,72.0,29.85,WSW,252,5.0,12.0,45,0.00,,,0.00,,2013-06-27 19:23:00,
2013-06-27 14:34:00,98.0,75.0,29.85,WNW,295,1.0,8.0,48,0.00,,,0.00,,2013-06-27 19:34:00,
2013-06-27 14:42:00,98.0,75.0,29.85,WNW,295,1.0,8.0,48,0.00,,,0.00,,2013-06-27 19:42:00,
2013-06-27 14:53:00,98.0,74.0,29.84,West,276,3.0,11.0,46,0.00,,,0.00,,2013-06-27 19:53:00,
2013-06-27 15:01:00,99.0,74.0,29.84,NE,50,2.0,7.0,45,0.00,,,0.00,,2013-06-27 20:01:00,
2013-06-27 15:11:00,99.0,74.0,29.84,NE,50,2.0,7.0,45,0.00,,,0.00,,2013-06-27 20:11:00,
2013-06-27 15:22:00,99.0,75.0,29.83,WNW,291,2.0,7.0,46,0.00,,,0.00,,2013-06-27 20:22:00,
2013-06-27 15:36:00,101.0,74.0,29.83,WSW,246,1.0,6.0,43,0.00,,,0.00,,2013-06-27 20:36:00,
2013-06-27 15:45:00,101.0,74.0,29.83,WSW,246,1.0,6.0,43,0.00,,,0.00,,2013-06-27 20:45:00,
2013-06-27 16:13:00,101.0,74.0,29.83,NW,305,2.0,5.0,43,0.00,,,0.00,,2013-06-27 21:13:00,
2013-06-27 16:24:00,100.0,75.0,29.83,NNW,336,0.0,6.0,45,0.00,,,0.00,,2013-06-27 21:24:00,
2013-06-27 16:36:00,100.0,72.0,29.82,NNE,15,2.0,4.0,41,0.00,,,0.00,,2013-06-27 21:36:00,
2013-06-27 17:06:00,99.0,74.0,29.82,WNW,287,2.0,7.0,45,0.00,,,0.00,,2013-06-27 22:06:00,
2013-06-27 17:14:00,99.0,74.0,29.82,WNW,287,2.0,7.0,45,0.00,,,0.00,,2013-06-27 22:14:00,
2013-06-27 17:24:00,98.0,76.0,29.82,NW,309,1.0,8.0,49,0.00,,,0.00,,2013-06-27 22:24:00,
2013-06-27 17:34:00,98.0,76.0,29.81,NNW,337,2.0,6.0,49,0.00,,,0.00,,2013-06-27 22:34:00,
2013-06-27 17:48:00,98.0,76.0,29.81,NNW,337,2.0,6.0,49,0.00,,,0.00,,2013-06-27 22:48:00,
2013-06-27 17:58:00,97.0,71.0,29.81,NE,44,2.0,10.0,44,0.00,,,0.00,,2013-06-27 22:58:00,
2013-06-27 18:05:00,97.0,75.0,29.81,NE,39,0.0,7.0,50,0.00,,,0.00,,2013-06-27 23:05:00,
2013-06-27 18:15:00,97.0,75.0,29.81,NE,39,0.0,7.0,50,0.00,,,0.00,,2013-06-27 23:15:00,
2013-06-27 18:25:00,96.0,75.0,29.80,NNE,32,1.0,5.0,52,0.00,,,0.00,,2013-06-27 23:25:00,
2013-06-27 18:34:00,96.0,76.0,29.80,NNE,26,1.0,4.0,53,0.00,,,0.00,,2013-06-27 23:34:00,
2013-06-27 18:45:00,96.0,76.0,29.80,NNE,26,1.0,4.0,53,0.00,,,0.00,,2013-06-27 23:45:00,
2013-06-27 19:06:00,95.0,76.0,29.79,ENE,65,3.0,8.0,54,0.00,,,0.00,,2013-06-28 00:06:00,
2013-06-27 19:13:00,95.0,76.0,29.79,ENE,65,3.0,8.0,54,0.00,,,0.00,,2013-06-28 00:13:00,
2013-06-27 19:28:00,95.0,78.0,29.79,NNE,23,1.0,3.0,58,0.00,,,0.00,,2013-06-28 00:28:00,
2013-06-27 19:34:00,94.0,77.0,29.79,North,11,0.0,5.0,59,0.00,,,0.00,,2013-06-28 00:34:00,
2013-06-27 19:45:00,94.0,77.0,29.79,North,11,0.0,5.0,59,0.00,,,0.00,,2013-06-28 00:45:00,
2013-06-27 19:56:00,94.0,77.0,29.80,ESE,107,0.0,2.0,59,0.00,,,0.00,,2013-06-28 00:56:00,
2013-06-27 20:06:00,94.0,78.0,29.80,SSE,164,0.0,1.0,60,0.00,,,0.00,,2013-06-28 01:06:00,
2013-06-27 20:14:00,94.0,78.0,29.80,SSE,164,0.0,1.0,60,0.00,,,0.00,,2013-06-28 01:14:00,
2013-06-27 20:35:00,90.0,78.0,29.80,ESE,120,0.0,1.0,68,0.00,,,0.00,,2013-06-28 01:35:00,
2013-06-27 20:45:00,90.0,78.0,29.80,ESE,120,0.0,1.0,68,0.00,,,0.00,,2013-06-28 01:45:00,
2013-06-27 21:05:00,87.0,78.0,29.79,ESE,120,0.0,0.0,74,0.00,,,0.00,,2013-06-28 02:05:00,
2013-06-27 21:17:00,87.0,78.0,29.79,ESE,120,0.0,0.0,74,0.00,,,0.00,,2013-06-28 02:17:00,
2013-06-27 21:27:00,86.0,78.0,29.79,ESE,120,0.0,0.0,76,0.00,,,0.00,,2013-06-28 02:27:00,
2013-06-27 21:36:00,87.0,77.0,29.79,ESE,108,0.0,3.0,73,0.00,,,0.00,,2013-06-28 02:36:00,
2013-06-27 21:48:00,87.0,77.0,29.79,ESE,108,0.0,3.0,73,0.00,,,0.00,,2013-06-28 02:48:00,
2013-06-27 22:06:00,86.0,76.0,29.79,SSE,156,0.0,1.0,73,0.00,,,0.00,,2013-06-28 03:06:00,
2013-06-27 22:14:00,86.0,76.0,29.79,SSE,156,0.0,1.0,73,0.00,,,0.00,,2013-06-28 03:14:00,
2013-06-27 22:36:00,85.0,76.0,29.80,SSE,155,0.0,1.0,74,0.00,,,0.00,,2013-06-28 03:36:00,
2013-06-27 22:44:00,84.0,75.0,29.80,SSE,155,0.0,0.0,75,0.00,,,0.00,,2013-06-28 03:44:00,
2013-06-27 22:56:00,84.0,76.0,29.80,SSE,155,0.0,1.0,78,0.00,,,0.00,,2013-06-28 03:56:00,
2013-06-27 23:02:00,83.0,76.0,29.80,SSE,155,0.0,0.0,79,0.00,,,0.00,,2013-06-28 04:02:00,
2013-06-27 23:11:00,83.0,76.0,29.80,SSE,155,0.0,0.0,79,0.00,,,0.00,,2013-06-28 04:11:00,
2013-06-27 23:22:00,82.0,76.0,29.80,WSW,240,0.0,1.0,81,0.00,,,0.00,,2013-06-28 04:22:00,
2013-06-27 23:33:00,83.0,76.0,29.80,WSW,257,0.0,1.0,80,0.00,,,0.00,,2013-06-28 04:33:00,
2013-06-27 23:43:00,83.0,76.0,29.80,WSW,257,0.0,1.0,80,0.00,,,0.00,,2013-06-28 04:43:00,
2013-06-27 23:53:00,82.0,75.0,29.81,SE,133,0.0,0.0,79,0.00,,,0.00,,2013-06-28 04:53:00,